カタログに戻る

SL-12 DEB

LostHEO
NORAD 41649·DEBRIS·🇷🇺 Russia

打ち上げ Dec 25, 2008 から Baikonur Cosmodrome

Loading…

次のパス (今後24時間)

TLE

古いSource: Space-Track

元期: Nov 20, 2018, 09:25 UTC

1 41649U 08067V   18324.39272081  .00000004  00000-0  00000+0 0  9998
2 41649  64.7509 100.2097 5363637  41.2834 348.7641  4.15898716 36888

AllMySatでSL-12 DEBをリアルタイム追跡

Download on the App Store